Lapse_Rate
5.7 5.7 6.3 6.7 6.9 6.6 6.8 6.9 7.0 7.3 7.9 9.4 8.6 8.2 7.4 7.5 7.4 7.3 7.8 8.3 8.2 8.1 8.3 8.5 8.5 7.8 7.0 8.3 8.5 8.3 8.6 8.5 8.2 8.0 8.0 7.9 7.9 7.7 7.6 7.9 7.9 8.2 8.3 8.3
5.7 6.1 6.2 6.1 5.9 6.0 6.2 6.3 6.3 6.7 7.0 8.8 7.7 7.5 7.2 7.7 7.6 7.6 7.7 7.8 8.0 7.8 7.7 7.8 7.9 7.5 7.8 8.5 8.4 8.4 8.5 8.2 7.8 7.7 7.7 7.7 7.5 7.3 7.4 7.8 8.0 8.2 8.3 8.1
6.0 6.1 6.0 5.9 5.8 5.7 5.9 6.0 6.1 6.4 6.8 7.0 7.1 6.9 6.8 7.2 7.5 7.2 7.3 7.4 7.7 7.8 7.7 7.5 7.4 7.6 8.4 8.6 8.5 8.5 8.2 8.1 7.7 7.6 7.6 7.6 7.1 7.2 7.3 7.8 8.0 8.2 8.1 8.2
5.9 6.3 6.3 6.2 6.1 6.2 6.1 6.6 6.3 6.2 6.4 6.5 7.1 8.0 7.2 7.2 7.2 7.2 7.2 7.4 7.2 7.2 6.9 6.7 7.4 7.9 8.2 8.2 8.4 8.4 8.1 8.0 7.8 7.7 7.7 7.5 7.0 7.1 7.6 8.0 8.0 8.1 8.0 8.3
6.8 7.2 7.6 8.0 7.9 8.9 7.8 8.3 7.9 7.4 6.7 6.7 6.9 7.2 6.7 7.4 7.4 7.5 7.3 7.5 7.4 7.2 7.0 6.9 6.8 6.7 7.3 7.7 8.2 7.8 7.7 7.9 7.9 7.9 7.6 7.2 7.2 7.5 7.7 7.9 8.1 8.1 8.2 8.2
8.6 8.1 8.8 8.8 8.0 8.5 9.1 9.1 9.2 9.3 9.2 9.5 6.7 8.4 7.0 7.3 7.6 7.7 7.8 7.8 7.6 7.2 7.2 7.0 6.7 6.7 6.6 6.8 7.6 7.5 7.8 7.9 8.0 7.7 7.7 7.3 7.6 7.6 7.9 8.0 8.2 8.1 8.2 8.0
9.1 9.0 7.8 7.5 7.9 8.2 8.4 9.1 9.3 9.4 9.8 9.6 9.2 9.4 9.1 7.2 8.4 8.0 8.2 7.7 7.7 7.5 7.3 7.2 6.9 6.6 6.4 7.0 7.5 7.5 7.7 7.8 7.8 7.8 7.7 7.5 7.7 7.8 7.9 8.1 8.0 8.2 8.0 8.0
8.9 8.2 8.9 8.3 7.9 7.9 7.2 8.6 9.3 9.0 9.4 9.6 9.0 9.6 9.4 9.0 9.3 9.3 7.7 7.1 7.2 7.0 7.1 7.1 6.7 6.5 6.4 6.6 7.4 7.3 7.5 7.7 7.8 7.8 7.7 7.6 7.7 7.9 8.0 7.9 8.2 8.1 7.9 7.8
8.2 8.6 8.4 9.0 8.3 8.0 8.4 8.8 9.0 9.0 9.2 9.1 8.2 8.4 8.9 9.2 9.3 8.9 7.8 7.2 7.2 7.1 6.5 6.3 6.2 6.2 6.4 6.8 7.2 7.6 7.4 7.4 7.6 7.7 7.6 7.7 7.8 7.9 7.9 8.3 8.1 7.9 7.8 7.8
8.3 8.0 8.7 8.9 8.1 8.3 7.9 8.6 7.4 8.9 9.3 9.2 9.4 9.3 9.1 9.3 8.7 9.1 8.4 7.5 6.9 6.6 6.6 6.3 6.3 6.4 6.4 7.1 7.6 7.2 7.2 7.2 7.5 7.6 7.7 7.7 7.9 8.0 8.3 8.1 7.9 7.7 7.6 7.4
8.7 8.4 8.5 8.9 9.0 8.5 8.4 9.0 7.9 7.7 8.0 9.3 8.7 8.6 8.6 9.5 9.0 8.7 9.4 7.1 6.7 6.6 6.2 5.7 5.9 7.0 7.5 7.5 7.5 7.2 7.2 7.4 7.5 7.7 7.7 7.9 7.9 8.0 8.0 7.9 7.7 7.5 7.2 7.0
8.1 7.4 8.2 8.7 9.3 8.6 8.6 9.1 8.6 7.3 8.0 9.0 9.0 8.0 8.0 7.4 9.3 9.1 8.3 6.7 6.4 6.5 6.1 6.8 7.2 7.5 7.5 7.4 7.4 7.4 7.5 7.5 7.6 7.8 7.8 7.7 7.8 7.9 7.8 7.5 7.3 7.1 7.0 7.0
7.2 7.8 7.9 8.8 8.8 7.9 7.7 8.2 8.5 8.1 7.7 7.6 7.8 7.0 7.4 7.4 8.7 8.6 7.9 6.4 6.4 6.4 6.5 7.4 7.4 7.5 6.2 6.0 6.3 7.5 7.2 7.4 7.7 7.6 7.6 7.7 7.7 7.5 7.3 7.2 7.1 6.9 6.8 6.6
6.8 7.2 7.5 7.9 8.4 7.6 7.4 8.1 8.3 8.3 8.1 8.5 8.9 8.5 6.7 6.3 6.8 8.9 8.8 6.1 5.8 6.6 7.1 7.2 7.7 7.2 6.0 6.8 6.4 6.2 6.3 7.0 7.5 7.6 7.6 7.5 7.3 7.2 7.1 7.0 6.8 6.7 6.4 6.2
6.9 7.0 7.5 7.7 8.3 8.5 8.5 9.3 9.4 9.3 9.2 9.3 9.1 8.5 8.6 6.4 6.2 7.1 8.3 6.2 5.8 6.6 6.9 6.7 6.8 7.1 6.6 6.6 6.8 6.5 6.4 7.1 7.4 7.6 7.3 7.2 7.1 7.0 6.9 6.7 6.6 6.3 6.1 6.0
6.7 6.8 7.1 7.6 8.1 8.3 9.2 9.3 9.4 9.4 9.0 8.1 9.3 9.2 8.9 8.4 7.7 7.9 7.5 6.5 6.2 6.1 6.5 6.7 6.8 7.0 6.9 6.7 6.7 5.8 5.9 6.6 7.3 7.2 7.1 7.1 6.9 6.8 6.6 6.4 6.2 6.1 6.1 6.1
6.5 6.7 6.9 7.5 8.3 9.2 9.0 9.4 9.4 9.3 9.4 8.6 8.4 8.9 9.3 9.2 9.0 8.4 7.4 6.5 6.0 5.8 6.1 6.4 6.6 7.0 7.3 6.5 6.4 5.7 5.9 6.9 7.1 7.0 7.0 6.8 6.7 6.5 6.3 6.1 6.1 6.1 6.1 6.0
6.5 6.5 6.4 7.0 7.8 7.9 8.7 8.9 8.6 8.3 8.0 8.0 7.7 8.4 8.7 8.8 8.7 7.9 6.4 6.4 6.0 5.8 5.8 6.2 6.6 6.6 6.5 6.3 6.2 5.6 6.5 6.9 6.9 6.8 6.5 6.4 6.3 6.3 6.1 6.1 6.2 6.3 6.1 6.1
6.8 6.4 6.2 6.7 7.1 7.5 7.4 7.3 7.1 6.8 7.3 7.6 7.3 7.2 7.3 7.3 7.8 7.9 6.3 5.7 5.8 6.0 6.4 6.3 6.6 6.8 6.6 6.3 6.2 6.0 6.9 6.7 6.2 5.3 5.0 5.9 5.1 6.3 6.1 6.2 6.2 6.2 6.1 6.0
6.6 6.4 6.2 6.6 6.9 7.1 7.0 6.6 6.6 6.4 6.7 6.7 6.9 6.8 6.8 6.9 7.7 7.9 7.6 6.3 5.9 5.9 6.4 6.6 6.8 6.8 6.6 6.7 5.8 6.9 6.7 5.7 5.4 5.3 6.0 5.7 5.0 6.2 6.1 6.0 6.0 6.1 6.1 5.9
6.8 6.5 6.3 6.4 6.5 6.9 6.7 6.4 6.4 6.3 7.1 6.9 6.8 6.6 6.8 6.4 6.5 6.8 5.8 5.6 6.0 6.4 6.5 6.6 6.7 6.9 6.6 6.1 5.9 6.4 5.7 5.5 5.4 5.8 5.4 5.4 5.5 5.8 5.8 5.8 5.9 5.9 6.0 5.9
6.8 6.5 6.7 6.5 6.8 7.1 6.6 6.2 6.2 6.3 6.6 6.4 6.6 6.2 5.9 6.0 6.0 5.5 5.1 5.9 6.3 6.4 6.7 6.6 6.4 6.6 6.0 5.8 6.7 5.6 5.5 5.6 5.6 5.4 5.2 5.0 5.5 5.0 5.5 5.9 5.8 5.8 5.8 5.8
6.8 6.6 6.7 6.3 6.5 6.5 6.3 6.1 6.1 6.1 5.9 6.2 6.1 6.1 5.9 6.1 5.8 6.3 5.1 5.1 6.0 6.5 6.7 6.7 6.6 6.5 5.9 5.8 6.3 5.5 5.6 5.4 5.5 5.3 5.1 5.7 5.8 5.4 5.7 5.8 5.8 5.8 5.8 5.7
6.8 6.9 6.6 6.3 6.6 6.2 6.1 6.1 6.0 6.2 6.3 6.3 6.0 5.8 5.7 5.9 6.0 5.6 5.4 5.6 6.4 6.7 6.8 6.7 6.7 6.4 5.9 5.8 5.6 5.5 5.5 5.3 5.3 5.5 5.4 5.4 5.8 5.8 5.8 5.9 5.7 5.6 5.6 5.7
6.8 6.6 6.6 6.3 6.4 6.1 6.0 6.1 5.7 5.9 6.3 6.2 5.7 5.4 5.8 6.1 5.9 5.8 5.8 6.2 6.6 6.7 6.7 6.7 6.6 6.1 5.9 5.9 5.6 5.6 5.6 5.6 5.5 5.3 6.0 5.5 5.6 5.5 6.0 5.9 5.7 5.7 5.7 5.6
6.8 6.8 6.4 6.4 6.0 5.9 5.6 5.7 5.9 6.2 6.8 5.9 5.4 5.8 5.6 5.8 5.7 6.1 6.5 6.4 6.6 6.9 6.4 6.8 6.4 6.2 6.0 5.8 5.7 5.7 5.7 5.6 5.5 5.8 5.7 5.9 5.6 5.4 5.5 5.7 5.6 5.8 5.8 5.8
Wind_Speed
10 12 14 16 17 20 22 25 31 30 25 25 30 31 32 30 29 28 26 22 29 29 23 21 15 12 12 12 12 11 13 13 10 11 10 11 11 10 10 10 11 12 12 15
13 16 15 15 18 23 22 25 28 27 28 26 24 27 30 29 27 28 28 28 27 22 21 21 19 17 14 15 13 14 14 14 12 10 9 10 8 10 10 10 10 12 14 14
14 16 19 19 20 20 20 22 24 26 24 26 28 29 31 30 29 27 27 27 27 26 25 21 19 18 16 15 14 15 15 15 13 13 9 7 7 7 8 9 9 11 13 11
15 16 16 15 18 18 22 20 21 22 20 22 25 24 29 26 29 27 27 24 22 22 22 22 22 21 19 18 17 16 15 14 13 12 11 11 9 9 8 7 10 9 9 10
18 19 20 22 22 20 22 19 23 23 22 24 29 21 25 26 26 26 26 27 29 29 28 27 25 22 22 20 17 15 15 14 14 12 13 11 11 9 8 10 11 8 8 10
17 13 21 15 17 25 21 21 25 23 20 21 28 26 25 24 25 23 18 20 19 22 22 22 20 22 18 16 16 12 12 14 13 13 14 13 12 11 10 10 10 8 9 9
17 15 4 5 14 17 24 21 15 17 17 20 23 27 22 24 27 28 16 17 23 12 15 18 20 16 17 15 16 12 12 12 13 14 14 14 12 10 12 14 12 12 10 10
9 16 11 3 11 18 16 21 14 17 16 19 15 23 25 25 26 10 10 20 12 13 14 14 15 13 12 13 15 13 13 12 13 14 15 13 13 10 11 14 12 11 10 11
13 11 23 18 9 16 19 15 20 19 24 16 15 25 27 30 23 21 18 15 13 5 9 12 15 14 12 11 11 11 12 13 14 15 13 13 14 13 13 11 13 11 11 9
15 20 17 13 9 13 15 12 9 12 21 22 20 18 18 30 29 21 17 4 2 8 12 7 10 7 5 10 9 11 13 14 15 15 14 14 13 12 13 11 9 10 10 11
18 15 19 20 14 15 11 15 7 9 14 13 15 12 15 16 30 22 8 5 4 7 6 7 7 4 6 5 11 12 14 16 15 15 14 12 11 12 13 11 12 11 10 11
19 7 15 21 23 12 17 15 11 5 9 18 15 17 21 31 28 27 11 2 8 11 8 1 2 6 12 14 14 15 15 16 16 14 12 12 15 15 13 13 12 11 11 10
8 6 10 14 7 11 10 19 10 7 11 21 11 10 20 8 16 12 7 6 14 13 9 4 3 7 11 14 15 16 16 17 16 17 16 16 15 14 13 13 11 10 10 9
11 15 16 16 22 7 9 16 14 14 12 18 16 20 3 26 23 6 5 7 12 14 9 8 1 1 6 9 14 16 16 16 16 16 16 15 14 13 12 11 11 10 10 10
4 8 19 21 22 19 22 19 15 18 20 21 22 20 14 12 20 28 15 10 14 13 9 9 3 3 4 7 10 15 16 16 16 16 15 14 13 12 12 12 11 11 10 7
4 7 15 20 21 21 22 21 18 19 21 28 24 23 18 17 19 19 18 16 14 13 10 8 10 2 2 7 13 16 16 16 15 15 14 14 13 13 12 11 9 11 8 5
6 6 11 18 19 17 17 19 18 18 21 24 24 21 19 18 15 15 15 14 13 12 11 3 12 6 5 7 10 16 16 15 15 14 14 14 13 13 8 10 11 9 6 6
3 9 8 10 13 11 11 10 14 15 17 14 20 18 19 21 16 18 17 15 12 11 11 4 13 9 8 7 13 16 15 15 14 14 14 13 11 13 13 12 9 6 7 8
8 1 4 4 7 15 22 13 8 9 20 19 21 25 21 23 22 17 12 14 11 14 9 4 15 17 11 10 15 16 15 14 14 14 13 11 11 10 9 11 9 9 8 7
7 7 4 4 5 5 2 8 7 8 17 9 10 11 13 13 12 6 11 8 3 8 11 9 17 16 12 11 17 15 15 14 14 13 12 9 13 14 9 7 8 8 8 8
7 3 7 11 8 8 9 9 8 5 5 15 14 13 16 12 11 20 9 7 10 10 6 7 17 17 15 17 16 15 14 14 15 13 11 12 15 11 10 9 6 9 7 5
3 3 3 4 5 1 13 6 3 10 18 16 17 18 16 17 15 16 15 11 13 5 12 13 13 15 17 17 15 15 14 16 15 13 14 13 8 9 10 9 9 8 7 8
4 4 2 3 5 18 14 12 14 13 16 19 16 19 18 19 15 16 15 13 5 8 15 13 11 14 17 17 15 15 14 15 10 10 13 10 7 6 8 9 7 6 7 6
10 4 4 2 5 13 15 10 14 8 14 18 21 22 20 19 16 18 11 10 5 13 10 14 13 19 17 16 15 15 16 14 11 11 10 8 7 7 8 7 6 6 6 5
12 10 9 11 14 14 7 10 13 13 15 19 14 13 13 13 18 11 11 5 9 9 8 9 15 17 17 16 16 16 16 16 8 14 7 8 8 8 9 7 3 4 6 2
9 10 4 3 8 10 10 15 13 15 18 18 12 13 10 9 11 8 10 9 3 5 12 5 17 18 17 17 17 16 15 20 14 9 7 6 8 8 9 9 8 15 11 12
Wind_Direction
286 287 260 276 281 278 280 274 276 277 274 244 251 257 247 241 237 249 255 251 230 245 250 250 255 258 254 243 229 238 240 244 250 244 239 241 236 231 225 224 210 201 192 200
277 254 263 261 269 278 279 278 272 275 270 278 272 266 264 260 246 247 245 246 252 249 243 248 249 247 241 244 236 229 235 237 237 229 238 248 252 234 216 211 193 195 193 196
295 298 306 289 274 270 271 266 273 280 286 273 266 256 263 264 257 256 253 251 253 253 253 252 257 256 251 247 238 230 228 232 232 227 223 223 250 258 207 195 180 196 192 191
290 290 270 274 269 269 271 269 273 276 269 259 254 261 249 246 249 251 251 247 249 254 259 254 250 252 247 247 249 242 231 223 221 207 228 214 216 209 209 200 203 180 179 169
291 292 285 278 276 279 275 277 274 267 263 267 254 259 255 245 245 241 241 242 242 242 243 247 249 252 252 247 240 226 227 215 215 197 215 217 220 202 185 203 138 153 159 169
277 334 286 308 328 297 288 282 271 262 258 253 252 248 252 246 248 259 257 258 256 248 246 245 254 251 248 249 243 227 219 216 206 212 200 226 192 217 172 158 163 168 173 179
314 306 247 249 322 294 256 258 261 253 244 252 250 251 246 256 243 249 263 263 242 260 262 249 239 239 239 232 231 212 208 213 211 202 196 197 195 191 153 153 167 163 172 173
334 308 323 315 289 301 283 250 244 261 260 257 317 258 246 248 254 254 267 281 273 256 253 253 246 245 249 236 204 208 195 200 190 188 187 183 175 176 162 190 150 168 168 167
305 306 318 301 280 296 276 251 253 268 281 270 273 272 277 240 249 250 252 242 219 272 295 273 258 250 239 230 200 192 200 182 177 175 172 168 172 166 169 149 150 163 162 139
294 295 303 294 289 248 251 281 258 239 260 263 267 263 258 204 231 217 229 167 274 266 262 274 258 238 239 210 161 192 169 163 164 158 158 162 158 145 129 144 154 136 118 148
301 297 290 292 264 279 249 246 189 262 231 271 269 277 350 236 203 217 200 102 317 306 17 295 338 331 257 167 180 167 160 157 153 155 149 130 126 132 143 138 138 131 143 149
305 289 286 279 283 219 262 266 313 233 286 264 275 284 306 298 185 199 109 76 332 329 80 152 206 209 197 187 151 158 152 152 152 134 133 133 139 138 138 138 138 143 152 163
357 284 305 292 247 32 354 311 280 282 269 264 270 276 314 324 104 115 120 18 335 335 50 91 163 199 175 152 150 147 154 147 142 141 139 138 137 140 138 138 143 149 152 158
294 261 257 269 288 244 237 233 254 275 264 276 262 258 290 308 309 185 61 35 328 316 6 101 190 344 325 143 144 153 141 142 137 137 138 138 140 139 138 140 147 151 158 164
211 266 273 272 277 278 278 283 271 266 269 267 283 284 282 240 283 301 329 318 317 312 343 116 126 8 325 144 142 141 140 139 141 138 139 138 137 139 143 148 153 157 161 122
242 275 289 288 280 267 264 262 257 259 268 273 274 278 277 263 265 277 283 292 296 307 324 103 142 208 297 133 158 140 139 140 138 138 139 143 146 146 148 152 149 160 106 126
261 280 288 280 276 286 270 271 266 261 262 260 266 272 274 277 279 283 291 282 281 285 296 357 162 170 203 191 133 145 139 141 143 142 145 147 150 136 145 157 155 137 157 144
229 238 242 266 299 265 281 355 349 325 310 289 286 298 308 301 286 271 271 275 269 280 283 347 171 171 202 210 159 141 147 149 146 149 148 150 148 149 166 158 138 116 148 130
197 228 262 256 241 277 289 321 331 304 280 291 295 295 283 275 277 270 261 270 273 262 264 225 185 163 183 192 154 149 153 155 154 154 152 124 166 118 154 129 138 151 147 141
167 207 251 281 262 274 6 72 8 299 273 33 351 328 316 301 274 255 247 229 306 337 335 304 173 154 174 199 149 156 159 159 164 135 111 165 142 138 152 150 162 156 150 153
306 228 232 250 252 265 49 356 332 237 339 341 325 297 290 286 298 323 334 318 302 302 282 258 164 164 188 159 151 166 160 173 119 128 148 188 121 146 170 152 149 165 162 170
269 290 305 292 267 345 343 350 233 316 309 308 302 292 296 292 294 301 295 285 282 347 293 184 171 187 161 150 159 160 173 128 133 158 182 124 136 169 147 145 158 152 153 153
302 205 260 203 287 301 313 295 292 279 274 285 282 282 277 276 282 276 280 285 320 276 281 186 201 141 153 156 171 160 152 133 147 193 127 118 144 127 134 149 159 154 171 170
310 330 242 295 269 315 312 308 294 304 300 292 276 270 259 258 266 273 277 279 235 264 191 185 157 159 153 161 166 169 143 139 164 132 122 138 136 136 151 152 181 163 180 178
289 296 288 272 289 321 281 285 321 321 313 310 309 287 248 235 253 255 274 262 268 241 198 204 168 151 154 164 164 169 152 140 192 118 146 147 140 149 118 71 41 132 44 118
268 351 315 296 336 291 323 344 352 335 321 319 331 316 293 270 268 289 292 250 228 238 193 210 150 152 159 162 165 166 162 154 149 130 163 166 148 176 140 133 104 51 69 67